Regional Weather Roundup
Issued by NWS State College, PA

Current Version | Previous Version | Text Only | Print | Product List | Glossary On
Versions: 1 2 3 4 5 6 7 8 9 10 11 12 13 14 15 16 17 18 19 20 21 22 23 24 25 26 27 28 29 30 31 32 33 34 35 36 37 38 39 40 41 42 43 44 45 46 47 48 49 50
000
ASUS41 KCTP 250810
RWRCTP

REGIONAL WEATHER ROUNDUP
NATIONAL WEATHER SERVICE STATE COLLEGE PA
400 AM EDT FRI APR 25 2014

Note: "fair" indicates few or no clouds below 12,000 feet with no
significant weather and/or obstructions to visibility.

* = STATION THAT DOES NOT REPORT PRECIPITATION /E.G. RAIN...SNOW...ETC/
    THUNDER OR FOG.

PAZ002>004-007>009-013>016-020>023-029>032-250900-
WESTERN PENNSYLVANIA

CITY           SKY/WX    TMP DP  RH WIND       PRES   REMARKS
ERIE           MOCLDY    50  17  27 SE6       29.85F
MEADVILLE      CLOUDY    49  18  29 VRB6      29.84F
FRANKLIN*      CLOUDY    46  18  31 E13       29.89F
NEW CASTLE     FAIR      50  21  32 SE6       29.86F
BEAVER COUNTY  NOT AVBL
BUTLER*        CLOUDY    48  21  34 E10       29.87F
PITTSBURGH INT CLOUDY    50  23  34 E7        29.84F
PITTSBURGH     CLOUDY    51  20  29 SE5       29.85F
INDIANA*       CLOUDY    54  18  24 SE12G17   29.90S
LATROBE        MOCLDY    55  21  26 E8        29.88S
WASHINGTON CO* CLOUDY    43  28  56 CALM      29.86F
$$

PAZ004>006-010>012-017>019-024>028-033>037-041-042-045-046-049>053-250900-
CENTRAL PENNSYLVANIA

CITY           SKY/WX    TMP DP  RH WIND       PRES   REMARKS
BRADFORD       CLOUDY    41  17  38 SE9       29.93F
DUBOIS         CLOUDY    46  17  31 E9        29.91F
CLEARFIELD     CLOUDY    41  21  44 NE8       29.96F
JOHNSTOWN      CLOUDY    48  17  29 SE14G22   29.91F
ALTOONA        CLOUDY    48  21  34 E3        29.96F
STATE COLLEGE  CLOUDY    47   8  20 SE5       29.98F
WILLIAMSPORT   PTCLDY    37  24  59 CALM      30.02S
SELINSGROVE    CLEAR     36  28  73 CALM      30.02F
FT INDIANTOWN  CLEAR     38  26  60 CALM      30.02S
CAPITAL CITY   CLEAR     40  30  67 CALM      30.01F
HARRISBURG     MOCLDY    44  29  55 NE5       30.01S
YORK           CLEAR     35  30  82 CALM      30.01S
$$

PAZ038>040-043-044-047-048-054-055-060>062-067>071-250900-
EASTERN PENNSYLVANIA

CITY           SKY/WX    TMP DP  RH WIND       PRES   REMARKS
SCRANTON       CLEAR     32  19  58 S8        30.01S
MOUNT POCONO   CLEAR     37  15  40 S3        29.97S
ALLENTOWN      CLEAR     37  19  48 CALM      30.02R
QUAKERTOWN*    SUNNY     41  18  38 CALM      30.02R
READING        CLEAR     40  22  48 CALM      30.02R
LANCASTER      CLEAR     38  25  59 CALM      30.01S
COATESVILLE    SUNNY     43  12  28 NE5       30.02R
POTTSTOWN      CLEAR     37  24  59 CALM      30.03S
BLUE BELL      CLEAR     39  30  70 CALM      30.01S
DOYLESTOWN     CLEAR     40  19  43 NE6       30.01R
WILLOW GROVE   NOT AVBL
NORTH PHILA    CLEAR     41  19  41 CALM      30.04R
PHILADELPHIA   PTCLDY    47  15  27 N5        30.03S
$$



USA.gov is the U.S. government's official web portal to all federal, state and local government web resources and services.